Time,TemperatureF,DewpointF,PressureIn,WindDirection,WindDirectionDegrees,WindSpeedMPH,WindSpeedGustMPH,Humidity,HourlyPrecipIn,Conditions,Clouds,dailyrainin,SoftwareType,DateUTC
2013-02-17 00:07:00,29.1,19.0,29.83,NW,322,1.0,3.0,67,0.00,,,0.00,weatherlink.com 1.10,2013-02-17 05:07:00,
2013-02-17 00:22:00,29.1,20.0,29.83,NW,310,0.0,6.0,68,0.00,,,0.00,weatherlink.com 1.10,2013-02-17 05:22:00,
2013-02-17 00:37:00,29.0,19.0,29.83,WNW,287,0.0,5.0,67,0.00,,,0.00,weatherlink.com 1.10,2013-02-17 05:37:00,
2013-02-17 00:52:00,28.9,19.0,29.83,WNW,300,0.0,8.0,67,0.00,,,0.00,weatherlink.com 1.10,2013-02-17 05:52:00,
2013-02-17 01:07:00,28.8,19.0,29.83,NNE,19,0.0,6.0,68,0.00,,,0.00,weatherlink.com 1.10,2013-02-17 06:07:00,
2013-02-17 01:23:00,28.5,19.0,29.83,NW,324,0.0,4.0,68,0.00,,,0.00,weatherlink.com 1.10,2013-02-17 06:23:00,
2013-02-17 01:37:00,28.2,19.0,29.84,West,279,3.0,4.0,68,0.00,,,0.00,weatherlink.com 1.10,2013-02-17 06:37:00,
2013-02-17 01:53:00,27.9,19.0,29.83,WNW,303,0.0,5.0,68,0.00,,,0.00,weatherlink.com 1.10,2013-02-17 06:53:00,
2013-02-17 02:07:00,27.6,19.0,29.84,NW,310,0.0,3.0,69,0.00,,,0.00,weatherlink.com 1.10,2013-02-17 07:07:00,
2013-02-17 02:22:00,27.4,18.0,29.84,NW,306,4.0,10.0,69,0.00,,,0.00,weatherlink.com 1.10,2013-02-17 07:22:00,
2013-02-17 02:37:00,27.2,18.0,29.84,NW,309,0.0,9.0,69,0.00,,,0.00,weatherlink.com 1.10,2013-02-17 07:37:00,
2013-02-17 02:52:00,27.0,18.0,29.84,NW,306,1.0,8.0,69,0.00,,,0.00,weatherlink.com 1.10,2013-02-17 07:52:00,
2013-02-17 03:07:00,26.8,18.0,29.83,NW,307,1.0,8.0,69,0.00,,,0.00,weatherlink.com 1.10,2013-02-17 08:07:00,
2013-02-17 03:23:00,26.3,17.0,29.83,WNW,292,0.0,6.0,69,0.00,,,0.00,weatherlink.com 1.10,2013-02-17 08:23:00,
2013-02-17 03:37:00,26.1,18.0,29.83,NW,313,0.0,5.0,70,0.00,,,0.00,weatherlink.com 1.10,2013-02-17 08:37:00,
2013-02-17 03:52:00,25.8,17.0,29.83,WNW,296,0.0,7.0,69,0.00,,,0.00,weatherlink.com 1.10,2013-02-17 08:52:00,
2013-02-17 04:07:00,25.7,16.0,29.83,NW,306,1.0,4.0,68,0.00,,,0.00,weatherlink.com 1.10,2013-02-17 09:07:00,
2013-02-17 04:23:00,25.4,16.0,29.83,WNW,287,1.0,5.0,68,0.00,,,0.00,weatherlink.com 1.10,2013-02-17 09:23:00,
2013-02-17 04:38:00,25.0,16.0,29.84,WNW,292,0.0,4.0,68,0.00,,,0.00,weatherlink.com 1.10,2013-02-17 09:38:00,
2013-02-17 04:53:00,24.8,16.0,29.84,WNW,294,0.0,3.0,68,0.00,,,0.00,weatherlink.com 1.10,2013-02-17 09:53:00,
2013-02-17 05:08:00,24.4,15.0,29.84,NW,315,0.0,2.0,67,0.00,,,0.00,weatherlink.com 1.10,2013-02-17 10:08:00,
2013-02-17 05:23:00,24.2,15.0,29.84,NW,310,0.0,4.0,67,0.00,,,0.00,weatherlink.com 1.10,2013-02-17 10:23:00,
2013-02-17 05:38:00,24.1,14.0,29.85,NW,309,0.0,2.0,66,0.00,,,0.00,weatherlink.com 1.10,2013-02-17 10:38:00,
2013-02-17 05:53:00,24.0,15.0,29.85,NW,309,0.0,2.0,68,0.00,,,0.00,weatherlink.com 1.10,2013-02-17 10:53:00,
2013-02-17 06:08:00,23.7,14.0,29.85,NW,307,1.0,2.0,67,0.00,,,0.00,weatherlink.com 1.10,2013-02-17 11:08:00,
2013-02-17 06:23:00,23.6,14.0,29.85,WNW,296,0.0,4.0,66,0.00,,,0.00,weatherlink.com 1.10,2013-02-17 11:23:00,
2013-02-17 06:38:00,23.5,13.0,29.86,WNW,296,0.0,4.0,64,0.00,,,0.00,weatherlink.com 1.10,2013-02-17 11:38:00,
2013-02-17 06:53:00,23.4,13.0,29.86,WNW,299,4.0,5.0,64,0.00,,,0.00,weatherlink.com 1.10,2013-02-17 11:53:00,
2013-02-17 07:08:00,24.0,13.0,29.87,West,264,3.0,8.0,63,0.00,,,0.00,weatherlink.com 1.10,2013-02-17 12:08:00,
2013-02-17 07:23:00,24.2,12.0,29.87,NW,323,4.0,11.0,61,0.00,,,0.00,weatherlink.com 1.10,2013-02-17 12:23:00,
2013-02-17 07:38:00,24.4,12.0,29.88,NW,313,0.0,9.0,59,0.00,,,0.00,weatherlink.com 1.10,2013-02-17 12:38:00,
2013-02-17 07:53:00,24.9,12.0,29.88,NW,315,0.0,9.0,59,0.00,,,0.00,weatherlink.com 1.10,2013-02-17 12:53:00,
2013-02-17 08:08:00,25.3,13.0,29.89,WNW,295,10.0,10.0,59,0.00,,,0.00,weatherlink.com 1.10,2013-02-17 13:08:00,
2013-02-17 08:23:00,25.8,13.0,29.89,NNW,342,2.0,13.0,58,0.00,,,0.00,weatherlink.com 1.10,2013-02-17 13:23:00,
2013-02-17 08:38:00,26.0,13.0,29.90,NW,309,4.0,14.0,59,0.00,,,0.00,weatherlink.com 1.10,2013-02-17 13:38:00,
2013-02-17 08:53:00,26.5,13.0,29.91,NW,306,6.0,13.0,58,0.00,,,0.00,weatherlink.com 1.10,2013-02-17 13:53:00,
2013-02-17 09:08:00,27.2,14.0,29.91,WNW,298,3.0,14.0,57,0.00,,,0.00,weatherlink.com 1.10,2013-02-17 14:08:00,
2013-02-17 09:24:00,27.9,14.0,29.91,WNW,288,0.0,11.0,57,0.00,,,0.00,weatherlink.com 1.10,2013-02-17 14:24:00,
2013-02-17 09:38:00,27.9,14.0,29.92,North,350,1.0,16.0,56,0.00,,,0.00,weatherlink.com 1.10,2013-02-17 14:38:00,
2013-02-17 09:53:00,28.9,15.0,29.92,NW,309,3.0,12.0,56,0.00,,,0.00,weatherlink.com 1.10,2013-02-17 14:53:00,
2013-02-17 10:08:00,28.5,14.0,29.93,WNW,299,13.0,14.0,54,0.00,,,0.00,weatherlink.com 1.10,2013-02-17 15:08:00,
2013-02-17 10:23:00,29.6,15.0,29.93,WNW,301,2.0,11.0,54,0.00,,,0.00,weatherlink.com 1.10,2013-02-17 15:23:00,
2013-02-17 10:38:00,29.2,14.0,29.93,SSW,194,1.0,15.0,53,0.00,,,0.00,weatherlink.com 1.10,2013-02-17 15:38:00,
2013-02-17 10:53:00,29.7,13.0,29.93,NNW,329,7.0,14.0,51,0.00,,,0.00,weatherlink.com 1.10,2013-02-17 15:53:00,
2013-02-17 11:08:00,29.2,13.0,29.93,WNW,288,2.0,12.0,51,0.00,,,0.00,weatherlink.com 1.10,2013-02-17 16:08:00,
2013-02-17 11:23:00,28.7,14.0,29.94,WNW,299,5.0,15.0,55,0.00,,,0.00,weatherlink.com 1.10,2013-02-17 16:23:00,
2013-02-17 11:38:00,29.3,15.0,29.94,WNW,302,11.0,17.0,55,0.00,,,0.00,weatherlink.com 1.10,2013-02-17 16:38:00,
2013-02-17 11:53:00,30.8,14.0,29.94,WNW,285,4.0,15.0,51,0.00,,,0.00,weatherlink.com 1.10,2013-02-17 16:53:00,
2013-02-17 12:09:00,29.7,15.0,29.94,NW,304,0.0,10.0,54,0.00,,,0.00,weatherlink.com 1.10,2013-02-17 17:09:00,
2013-02-17 12:23:00,29.2,15.0,29.94,WNW,298,4.0,15.0,55,0.00,,,0.00,weatherlink.com 1.10,2013-02-17 17:23:00,
2013-02-17 12:38:00,29.3,15.0,29.94,NNW,335,1.0,12.0,56,0.00,,,0.00,weatherlink.com 1.10,2013-02-17 17:38:00,
2013-02-17 12:53:00,28.5,16.0,29.94,WNW,287,0.0,7.0,61,0.00,,,0.00,weatherlink.com 1.10,2013-02-17 17:53:00,
2013-02-17 13:09:00,28.4,15.0,29.94,WNW,302,3.0,10.0,57,0.00,,,0.00,weatherlink.com 1.10,2013-02-17 18:09:00,
2013-02-17 13:23:00,28.3,15.0,29.94,NW,306,5.0,9.0,58,0.00,,,0.00,weatherlink.com 1.10,2013-02-17 18:23:00,
2013-02-17 13:38:00,28.7,13.0,29.94,WNW,294,5.0,11.0,53,0.00,,,0.00,weatherlink.com 1.10,2013-02-17 18:38:00,
2013-02-17 13:54:00,29.6,12.0,29.94,NW,315,2.0,13.0,48,0.00,,,0.00,weatherlink.com 1.10,2013-02-17 18:54:00,
2013-02-17 14:09:00,29.3,12.0,29.94,WNW,282,5.0,14.0,48,0.00,,,0.00,weatherlink.com 1.10,2013-02-17 19:09:00,
2013-02-17 14:24:00,29.0,12.0,29.94,WNW,286,5.0,17.0,50,0.00,,,0.00,weatherlink.com 1.10,2013-02-17 19:24:00,
2013-02-17 14:39:00,28.4,14.0,29.96,NNW,341,6.0,21.0,55,0.00,,,0.00,weatherlink.com 1.10,2013-02-17 19:39:00,
2013-02-17 14:54:00,27.5,18.0,29.96,NW,321,0.0,15.0,67,0.00,,,0.00,weatherlink.com 1.10,2013-02-17 19:54:00,
2013-02-17 15:09:00,29.1,17.0,29.96,NW,309,8.0,10.0,61,0.00,,,0.00,weatherlink.com 1.10,2013-02-17 20:09:00,
2013-02-17 15:24:00,27.9,17.0,29.96,WNW,292,4.0,12.0,64,0.00,,,0.00,weatherlink.com 1.10,2013-02-17 20:24:00,
2013-02-17 15:39:00,28.4,14.0,29.96,WNW,291,8.0,15.0,56,0.00,,,0.00,weatherlink.com 1.10,2013-02-17 20:39:00,
2013-02-17 15:54:00,27.8,18.0,29.99,WNW,295,3.0,17.0,68,0.00,,,0.00,weatherlink.com 1.10,2013-02-17 20:54:00,
2013-02-17 16:09:00,28.3,17.0,29.99,NW,317,3.0,13.0,62,0.00,,,0.00,weatherlink.com 1.10,2013-02-17 21:09:00,
2013-02-17 16:24:00,28.5,14.0,29.99,NNE,28,10.0,16.0,56,0.00,,,0.00,weatherlink.com 1.10,2013-02-17 21:24:00,
2013-02-17 16:39:00,28.9,14.0,30.00,WNW,300,3.0,15.0,53,0.00,,,0.00,weatherlink.com 1.10,2013-02-17 21:39:00,
2013-02-17 16:54:00,28.2,13.0,30.00,WNW,291,10.0,18.0,53,0.00,,,0.00,weatherlink.com 1.10,2013-02-17 21:54:00,
2013-02-17 17:09:00,27.5,11.0,30.00,NW,311,8.0,18.0,51,0.00,,,0.00,weatherlink.com 1.10,2013-02-17 22:09:00,
2013-02-17 17:24:00,26.9,13.0,30.02,NW,311,6.0,16.0,55,0.00,,,0.00,weatherlink.com 1.10,2013-02-17 22:24:00,
2013-02-17 17:39:00,26.5,13.0,30.03,WNW,294,7.0,12.0,58,0.00,,,0.00,weatherlink.com 1.10,2013-02-17 22:39:00,
2013-02-17 17:54:00,26.0,14.0,30.03,NNW,340,3.0,12.0,60,0.00,,,0.00,weatherlink.com 1.10,2013-02-17 22:54:00,
2013-02-17 18:09:00,25.7,13.0,30.05,NW,306,8.0,12.0,59,0.00,,,0.00,weatherlink.com 1.10,2013-02-17 23:09:00,
2013-02-17 18:24:00,25.5,13.0,30.06,WNW,298,0.0,9.0,59,0.00,,,0.00,weatherlink.com 1.10,2013-02-17 23:24:00,
2013-02-17 18:39:00,25.3,12.0,30.06,NW,325,3.0,9.0,57,0.00,,,0.00,weatherlink.com 1.10,2013-02-17 23:39:00,
2013-02-17 18:54:00,25.6,13.0,30.07,WNW,295,0.0,10.0,58,0.00,,,0.00,weatherlink.com 1.10,2013-02-17 23:54:00,
2013-02-17 19:09:00,25.5,13.0,30.07,NW,324,2.0,8.0,59,0.00,,,0.00,weatherlink.com 1.10,2013-02-18 00:09:00,
2013-02-17 19:24:00,25.3,13.0,30.08,NW,304,9.0,12.0,59,0.00,,,0.00,weatherlink.com 1.10,2013-02-18 00:24:00,
2013-02-17 19:40:00,25.2,12.0,30.09,WNW,291,8.0,9.0,57,0.00,,,0.00,weatherlink.com 1.10,2013-02-18 00:40:00,
2013-02-17 19:55:00,25.0,12.0,30.10,WNW,291,2.0,3.0,59,0.00,,,0.00,weatherlink.com 1.10,2013-02-18 00:55:00,
2013-02-17 20:10:00,24.5,12.0,30.10,NNW,340,1.0,6.0,58,0.00,,,0.00,weatherlink.com 1.10,2013-02-18 01:10:00,
2013-02-17 20:24:00,24.2,12.0,30.11,WNW,287,0.0,7.0,59,0.00,,,0.00,weatherlink.com 1.10,2013-02-18 01:24:00,
2013-02-17 20:40:00,23.9,11.0,30.12,WNW,287,0.0,2.0,59,0.00,,,0.00,weatherlink.com 1.10,2013-02-18 01:40:00,
2013-02-17 20:54:00,23.9,11.0,30.13,WNW,296,0.0,5.0,58,0.00,,,0.00,weatherlink.com 1.10,2013-02-18 01:54:00,
2013-02-17 21:09:00,23.9,10.0,30.13,NW,305,0.0,5.0,56,0.00,,,0.00,weatherlink.com 1.10,2013-02-18 02:09:00,
2013-02-17 21:24:00,23.9,11.0,30.14,WNW,295,0.0,6.0,57,0.00,,,0.00,weatherlink.com 1.10,2013-02-18 02:24:00,
2013-02-17 21:39:00,23.8,10.0,30.15,WNW,292,0.0,7.0,57,0.00,,,0.00,weatherlink.com 1.10,2013-02-18 02:39:00,
2013-02-17 21:55:00,23.8,10.0,30.16,NW,307,5.0,14.0,55,0.00,,,0.00,weatherlink.com 1.10,2013-02-18 02:55:00,
2013-02-17 22:09:00,23.9,9.0,30.17,NNW,340,0.0,12.0,53,0.00,,,0.00,weatherlink.com 1.10,2013-02-18 03:09:00,
2013-02-17 22:25:00,23.7,9.0,30.17,NW,313,0.0,9.0,54,0.00,,,0.00,weatherlink.com 1.10,2013-02-18 03:25:00,
2013-02-17 22:40:00,23.6,9.0,30.17,NW,326,1.0,10.0,55,0.00,,,0.00,weatherlink.com 1.10,2013-02-18 03:40:00,
2013-02-17 22:55:00,23.5,9.0,30.17,North,9,5.0,11.0,55,0.00,,,0.00,weatherlink.com 1.10,2013-02-18 03:55:00,
2013-02-17 23:10:00,23.5,9.0,30.17,WNW,295,5.0,14.0,55,0.00,,,0.00,weatherlink.com 1.10,2013-02-18 04:10:00,
2013-02-17 23:25:00,23.3,9.0,30.17,WNW,294,4.0,9.0,55,0.00,,,0.00,weatherlink.com 1.10,2013-02-18 04:25:00,
2013-02-17 23:40:00,23.2,9.0,30.18,North,355,3.0,8.0,55,0.00,,,0.00,weatherlink.com 1.10,2013-02-18 04:40:00,
2013-02-17 23:55:00,23.0,9.0,30.19,NW,304,2.0,8.0,56,0.00,,,0.00,weatherlink.com 1.10,2013-02-18 04:55:00,